{"data":{"norad_id":68884,"intl_designator":"2026-095W","name":"KUIPER-00503","alt_names":[],"object_type":"PAYLOAD","status":"ACTIVE","operator":null,"country":"US","launch_date":"2026-04-28","launch_site_code":"AFETR","launch_vehicle":null,"mission":null,"orbit_class":"UNKNOWN","rcs_meters":null,"size_class":null,"mass_kg":null,"dimensions":null,"purposes":[],"wikipedia_slug":null,"has_3d_model":false,"image_url":null,"decayed_at":null,"tle_current":{"epoch":"2026-05-25T04:00:03.998880Z","epoch_age_seconds":57482,"freshness":"FRESH","line1":"1 68884U 26095W   26145.16671295 -.01063485  00000+0 -41468-1 0  9993","line2":"2 68884  51.8822 354.0524 0006801 217.7457 122.4533 15.28260469  4763","mean_motion":15.28260469,"eccentricity":0.0006801,"inclination_deg":51.8822,"raan_deg":354.0524,"arg_perigee_deg":217.7457,"mean_anomaly_deg":122.4533,"bstar":-0.041468,"rev_number":476,"period_min":94.224775763666,"perigee_km":476.34737570141,"apogee_km":485.67719055632,"semimajor_km":6859.1492831289,"source":"CELESTRAK","updated_at":"2026-05-25T13:38:08.649793Z"}}}